DW8903 Ypaja FI current weather conditions

sailwx.info

Wind from 159 at 2 knots gusting 6

Air temperature 13.9° C
Dewpoint 10.3° C

Last reported at 2018-Jun-18 00:48 UTC.
Time now 2018-Jun-18 02:07 UTC

Location: N 60°48' E 023°14'.
View on Google Maps.

See reports from other nearby stations

  
Tides and Currents Weather Stations Pressure Air Temp Water Temp Dewpoint Dewpoint Depression Visibility Wind Speed Wind Dir Waves Ship Positions
date/time (UTC)wind fromknots sea level pressurealtimeterstation pressurevisibilityair tempwater tempwave heightnotes
2018-Jun-18 00:48 159 2 gusting 6 13.9
2018-Jun-18 00:33 107 1 gusting 4 13.9
2018-Jun-18 00:18 169 0 gusting 6 13.9
2018-Jun-18 00:03 158 0 gusting 6 13.9
2018-Jun-17 23:48 157 0 gusting 5 13.3
2018-Jun-17 23:33 132 13.9
2018-Jun-17 23:18 119 0 gusting 3 13.9
2018-Jun-17 23:03 102 14.4
2018-Jun-17 22:47 102 0 gusting 2 14.4
2018-Jun-17 22:32 105 15.6
2018-Jun-17 22:17 107 0 gusting 7 15.6
2018-Jun-17 22:02 099 0 gusting 5 16.1
2018-Jun-17 21:47 124 1 gusting 5 16.1
2018-Jun-17 21:32 136 0 gusting 5 16.1
2018-Jun-17 21:17 126 0 gusting 4 17.2
2018-Jun-17 21:02 163 1 gusting 7 17.8
2018-Jun-17 20:47 122 0 gusting 5 17.8
2018-Jun-17 20:32 167 0 gusting 7 18.3
2018-Jun-17 20:17 165 2 gusting 6 18.3
2018-Jun-17 20:02 178 2 gusting 6 18.9
2018-Jun-17 19:47 183 1 gusting 6 18.9
2018-Jun-17 19:32 171 2 gusting 6 18.9
2018-Jun-17 19:17 158 18.9
2018-Jun-17 19:02 161 1 gusting 4 20.0
2018-Jun-17 18:47 149 20.0
2018-Jun-17 18:32 142 20.6
2018-Jun-17 18:17 153 1 gusting 2 20.6
2018-Jun-17 18:02 160 21.1
2018-Jun-17 17:47 161 21.7
2018-Jun-17 17:32 161 22.2
2018-Jun-17 17:17 164 0 gusting 2 22.2
2018-Jun-17 17:02 209 1 gusting 6 22.2
2018-Jun-17 16:47 214 1 gusting 6 22.8
2018-Jun-17 16:32 222 0 gusting 6 23.9
2018-Jun-17 16:17 171 1 gusting 5 23.9
2018-Jun-17 16:02 265 1 gusting 5 23.9
2018-Jun-17 15:47 199 1 gusting 4 24.4
2018-Jun-17 15:32 185 1 gusting 6 24.4
2018-Jun-17 15:17 181 1 gusting 4 25.0
2018-Jun-17 15:02 216 1 gusting 5 25.0
2018-Jun-17 14:47 232 2 gusting 5 25.6
2018-Jun-17 14:32 199 1 gusting 5 26.1
2018-Jun-17 14:17 211 2 gusting 6 25.6
2018-Jun-17 14:02 183 1 gusting 5 26.1
2018-Jun-17 13:47 206 1 gusting 8 26.7
2018-Jun-17 13:32 176 1 gusting 4 26.1
2018-Jun-17 13:17 168 2 gusting 6 24.4
2018-Jun-17 13:02 202 2 gusting 6 26.1
2018-Jun-17 12:47 161 3 gusting 8 26.7
2018-Jun-17 12:32 164 1 gusting 6 24.4
2018-Jun-17 12:17 178 1 gusting 9 26.7
2018-Jun-17 12:02 220 1 gusting 4 26.7
2018-Jun-17 11:47 160 0 gusting 4 26.7
2018-Jun-17 11:32 178 2 gusting 7 24.4
2018-Jun-17 11:17 159 0 gusting 6 24.4
2018-Jun-17 11:02 112 1 gusting 6 24.4
2018-Jun-17 10:47 165 0 gusting 7 25.0
2018-Jun-17 10:32 173 3 gusting 6 25.6
2018-Jun-17 10:16 171 1 gusting 7 23.9
2018-Jun-17 10:02 223 0 gusting 4 24.4
2018-Jun-17 09:46 192 0 gusting 6 23.9
2018-Jun-17 09:31 160 23.3
2018-Jun-17 09:16 135 1 gusting 6 23.9
2018-Jun-17 09:01 139 1 gusting 6 23.3
2018-Jun-17 08:46 197 0 gusting 5 22.8
2018-Jun-17 08:31 173 0 gusting 6 22.8
2018-Jun-17 08:16 238 21.7
2018-Jun-17 08:01 105 0 gusting 2 22.2
2018-Jun-17 07:46 158 0 gusting 2 21.7
2018-Jun-17 07:31 121 0 gusting 6 21.1
2018-Jun-17 07:16 142 0 gusting 3 21.1
2018-Jun-17 07:01 051 1 gusting 5 21.1
2018-Jun-17 06:46 040 1 gusting 7 20.6
2018-Jun-17 06:31 077 2 gusting 8 20.0
2018-Jun-17 06:16 064 1 gusting 5 19.4
2018-Jun-17 06:01 062 3 gusting 8 19.4
2018-Jun-17 05:46 072 2 gusting 10 19.4
2018-Jun-17 05:31 066 0 gusting 4 18.9
2018-Jun-17 05:16 009 17.8
2018-Jun-17 05:01 026 17.2
2018-Jun-17 04:46 316 15.6
2018-Jun-17 04:31 316 13.3
2018-Jun-17 04:15 316 12.8
2018-Jun-17 04:00 316 10.6
2018-Jun-17 03:45 316 10.6
2018-Jun-17 03:30 316 10.0
2018-Jun-17 03:15 316 8.9
2018-Jun-17 03:00 316 8.3
2018-Jun-17 02:45 316 7.8
2018-Jun-17 02:30 316 6.7
2018-Jun-17 02:15 316 6.7
2018-Jun-17 02:00 316 6.7
2018-Jun-17 01:45 316 6.7
2018-Jun-17 01:30 316 6.7
2018-Jun-17 01:15 316 6.7
2018-Jun-17 01:00 316 6.7
2018-Jun-17 00:45 316 7.2
2018-Jun-17 00:30 316 7.2
2018-Jun-17 00:15 316 7.2
2018-Jun-17 00:00 316 7.8
2018-Jun-16 23:45 316 7.8
2018-Jun-16 23:30 316 8.3
2018-Jun-16 23:15 316 8.9
2018-Jun-16 23:00 316 8.9
2018-Jun-16 22:45 316 8.9
2018-Jun-16 22:30 316 9.4
2018-Jun-16 22:15 316 10.0
2018-Jun-16 22:00 316 10.6
2018-Jun-16 21:45 316 10.6
2018-Jun-16 21:30 316 11.1
2018-Jun-16 21:15 316 11.7
2018-Jun-16 21:00 316 12.2
2018-Jun-16 20:45 316 12.8
2018-Jun-16 20:30 316 13.3
2018-Jun-16 20:15 316 13.9
2018-Jun-16 20:00 316 15.0
2018-Jun-16 19:45 316 15.6
2018-Jun-16 19:30 316 15.6
2018-Jun-16 19:15 316 0 gusting 2 16.1
2018-Jun-16 19:00 316 16.7
2018-Jun-16 18:45 316 17.2
2018-Jun-16 18:30 316 0 gusting 5 17.8
2018-Jun-16 18:15 315 2 gusting 5 18.3
2018-Jun-16 18:00 315 19.4
2018-Jun-16 17:45 312 0 gusting 5 20.0
2018-Jun-16 17:30 298 0 gusting 4 20.0
2018-Jun-16 17:15 293 0 gusting 3 20.0
2018-Jun-16 17:00 304 20.0
2018-Jun-16 16:45 313 0 gusting 4 20.6
2018-Jun-16 16:30 313 2 gusting 5 21.1
2018-Jun-16 16:15 311 1 gusting 4 21.7
2018-Jun-16 16:00 254 0 gusting 2 22.2
2018-Jun-16 15:44 312 21.7
2018-Jun-16 15:29 257 1 gusting 3 22.2
2018-Jun-16 15:15 258 1 gusting 6 22.8
2018-Jun-16 14:59 188 1 gusting 7 22.8
2018-Jun-16 14:44 163 1 gusting 4 23.3
2018-Jun-16 14:29 157 0 gusting 4 23.3
2018-Jun-16 14:14 220 22.2
2018-Jun-16 13:59 225 0 gusting 2 22.8
2018-Jun-16 13:44 179 22.2
2018-Jun-16 13:29 213 1 gusting 3 22.8
2018-Jun-16 13:14 215 2 gusting 10 24.4
2018-Jun-16 12:59 253 22.8
2018-Jun-16 12:44 215 1 gusting 7 22.2
2018-Jun-16 12:29 195 2 gusting 5 24.4
2018-Jun-16 12:14 171 0 gusting 2 21.7
2018-Jun-16 11:59 171 1 gusting 6 21.7
2018-Jun-16 11:44 156 2 gusting 6 21.7
2018-Jun-16 11:29 186 1 gusting 6 22.8
2018-Jun-16 11:14 179 2 gusting 6 21.7
2018-Jun-16 10:59 177 0 gusting 5 22.2
2018-Jun-16 10:44 170 2 gusting 7 24.4
2018-Jun-16 10:29 161 1 gusting 8 24.4
2018-Jun-16 10:14 159 2 gusting 6 24.4
2018-Jun-16 09:59 179 1 gusting 4 23.9
2018-Jun-16 09:44 265 0 gusting 4 22.2
2018-Jun-16 09:29 224 2 gusting 5 22.8
2018-Jun-16 09:14 146 0 gusting 3 21.1
2018-Jun-16 08:59 229 21.7
2018-Jun-16 08:44 175 1 gusting 4 22.8
2018-Jun-16 08:29 226 0 gusting 4 22.2
2018-Jun-16 08:14 200 1 gusting 5 21.7
2018-Jun-16 07:59 163 2 gusting 6 21.1
2018-Jun-16 07:44 201 0 gusting 4 20.6
2018-Jun-16 07:29 181 1 gusting 3 20.0
2018-Jun-16 07:14 170 0 gusting 4 19.4
2018-Jun-16 06:59 149 18.3
2018-Jun-16 06:44 171 1 gusting 4 17.8
2018-Jun-16 06:29 169 17.2
2018-Jun-16 06:14 149 16.7
2018-Jun-16 05:59 173 0 gusting 3 15.6
2018-Jun-16 05:43 161 15.0
2018-Jun-16 05:28 150 13.9
2018-Jun-16 05:13 155 13.3
2018-Jun-16 04:58 151 0 gusting 2 12.2
2018-Jun-16 04:43 157 0 gusting 4 11.7
2018-Jun-16 04:28 169 1 gusting 6 11.1
2018-Jun-16 04:13 164 10.6
2018-Jun-16 03:58 166 0 gusting 4 10.6
2018-Jun-16 03:43 160 0 gusting 4 10.0
2018-Jun-16 03:28 163 10.0
2018-Jun-16 03:13 167 0 gusting 4 10.0
2018-Jun-16 02:58 165 0 gusting 2 9.4
2018-Jun-16 02:43 169 0 gusting 3 8.9
2018-Jun-16 02:28 168 8.9
2018-Jun-16 02:13 169 0 gusting 2 8.3